Flag for United Kingdom Weather past 2 weeks in Edinburgh, Scotland, United Kingdom

Now
54 °F

Fog.


Feels Like: 54 °F
Forecast: 56 / 67 °F
Wind: 2 mph from West

Location: Edinburgh Airport

Current Time: Jul 28, 2014 at 6:46:07 AM

Latest Report: Jul 28, 2014 at 6:20 AM


Visibility: 0 mi

Pressure: 30.04 "Hg

Humidity: 100%

Dew point: 54 °F

Location of EdinburghLocation

Historic Weather in Edinburgh — Graph

°F

Edinburgh temperature yesterday

Maximum temperature yesterday: 68 °F (at 1:50 PM)
Minimum temperature yesterday: 50 °F (at 11:50 PM)
Average temperature yesterday: 59 °F

Past Weeks' High & Low Weather Summary

 TemperatureHumidityPressure
High75 °F (Jul 22, 2:50 PM)100% (Jul 18, 1:50 AM)30.30 "Hg (Jul 18, 1:50 AM)
Low46 °F (Jul 28, 1:20 AM)50% (Jul 17, 4:50 PM)29.65 "Hg (Jul 14, 5:50 PM)
Average61 °F83%30.01 "Hg
* Reported Jul 13 5:20 AM — Jul 28 5:20 AM, Edinburgh, Weather by CustomWeather, © 2014

Note: Actual official high and low records may vary slightly from our data, if they occured in-between our weather recording intervals... More about our weather records

Advertising

Edinburgh weather history for previous 24 hours

 ConditionsComfort  
Time TempWeatherWind HumidityBarometerVisibility
5:20 AM
Jul 28
52 °FFog.No wind100%30.04 "Hg0 mi
4:50 AM52 °FFog.No wind94%30.01 "Hg1 mi
4:20 AM48 °FFog.3 mph100%30.01 "Hg1 mi
3:20 AM46 °FClear.No wind93%30.01 "Hg10 mi
2:50 AM48 °FClear.No wind94%30.01 "Hg10 mi
2:20 AM46 °FClear.2 mph100%30.01 "Hg10 mi
1:50 AM48 °FClear.3 mph100%29.98 "HgN/A
1:20 AM46 °FClear.3 mph100%29.98 "Hg10 mi
12:50 AM50 °FClear.3 mph94%29.98 "Hg10 mi
12:20 AM50 °FClear.No wind100%29.98 "HgN/A
11:50 PM
Jul 27
50 °FClear.No wind100%29.98 "HgN/A
11:20 PM52 °FClear.No wind100%29.98 "HgN/A
10:50 PM54 °FPassing clouds.No wind94%29.98 "HgN/A
10:20 PM55 °FPartly sunny.2 mph94%29.98 "HgN/A
9:50 PM55 °FPassing clouds.3 mph94%29.95 "HgN/A
9:20 PM57 °FPassing clouds.5 mph88%29.95 "HgN/A
8:50 PM57 °FPassing clouds.7 mph88%29.95 "HgN/A
8:20 PM61 °FPassing clouds.12 mph77%29.92 "HgN/A
7:50 PM61 °FPassing clouds.10 mph77%29.92 "HgN/A
7:20 PM63 °FScattered showers. Passing clouds.12 mph73%29.92 "HgN/A
6:50 PM64 °FMixture of precip. Scattered clouds.13 mph68%29.92 "HgN/A
6:20 PM64 °FPassing clouds.13 mph68%29.92 "HgN/A
5:50 PM63 °FPassing clouds.13 mph73%29.92 "HgN/A
5:20 PM63 °FScattered clouds.13 mph73%29.92 "HgN/A
4:50 PM64 °FScattered clouds.15 mph68%29.92 "HgN/A
4:20 PM66 °FScattered clouds.17 mph64%29.92 "HgN/A
3:50 PM64 °FScattered clouds.16 mph68%29.92 "HgN/A
3:20 PM66 °FPassing clouds.17 mph64%29.92 "HgN/A
2:50 PM64 °FPassing clouds.17 mph68%29.92 "HgN/A
2:20 PM63 °FScattered clouds.14 mph73%29.95 "HgN/A
1:50 PM68 °FScattered clouds.16 mph64%29.95 "HgN/A
1:20 PM66 °FScattered clouds.15 mph68%29.95 "HgN/A
12:50 PM61 °FBroken clouds.13 mph88%29.95 "HgN/A
12:20 PM64 °FScattered showers. Partly sunny.9 mph73%29.95 "HgN/A
11:50 AM64 °FPartly sunny.10 mph73%29.95 "HgN/A
11:20 AM64 °FPartly sunny.12 mph73%29.95 "HgN/A
10:50 AM63 °FPartly sunny.15 mph77%29.95 "HgN/A
10:20 AM61 °FPartly sunny.9 mph88%29.95 "HgN/A
9:50 AM61 °FBroken clouds.12 mph83%29.95 "HgN/A
9:20 AM61 °FPassing clouds.10 mph94%29.95 "HgN/A
8:50 AM57 °FScattered showers. Broken clouds.9 mph100%29.95 "HgN/A
8:20 AM57 °FScattered showers. Partly sunny.9 mph94%29.98 "Hg2 mi
7:50 AM59 °FRain showers. Broken clouds.15 mph88%29.98 "HgN/A
7:20 AM57 °FPassing clouds.9 mph94%29.98 "HgN/A
6:50 AM55 °FSunny.7 mph94%29.98 "Hg10 mi
6:20 AM55 °FPassing clouds.5 mph94%29.98 "HgN/A
Weather by CustomWeather, © 2014

See weather overviewHow to use our weather pages